Location: Unspecified
(0.0000°N, 0.0000°E)
Time: 05:50:37
(UTC+02:00)

Coronas F rocket - Visible Passes

Search period start: 28 May 2015 00:00
Search period end: 07 June 2015 00:00
Orbit: 367 x 381 km, 82.5° (Epoch: 27 May)

Date Brightness Start Highest point End Pass type
(mag) Time Alt. Az. Time Alt. Az. Time Alt. Az.
29 May 5.1 07:19:27 10° ESE 07:20:16 11° E 07:21:17 10° ENE visible
29 May 3.9 20:20:51 10° NNW 20:23:27 27° W 20:26:00 10° SSW visible
01 Jun 2.7 07:25:55 10° S 07:28:51 47° E 07:31:46 10° NNE visible
03 Jun 3.6 07:00:50 10° SSE 07:03:32 30° E 07:06:16 10° NNE visible
05 Jun 4.2 06:35:49 10° SE 06:38:08 20° E 06:40:31 10° NE visible
06 Jun 1.8 07:08:45 10° SSW 07:11:41 47° W 07:14:36 10° N visible
